Tracking 18957 objects as of 22-Jan-2018
HD Live streaming from Space Station
objects crossing your sky now

FENGYUN 1C DEB

Track FENGYUN 1C DEB now!
10-day predictions


NORAD ID: 37708
Int'l Code: 1999-025ELZ
Perigee: 551.2 km
Apogee: 1,048.7 km
Inclination: 98.3 °
Period: 100.7 minutes
Semi major axis: 7170 km
RCS: 0.0068 m2 (small)
Launch date: May 10, 1999
Source: People's Republic of China (PRC)
Launch site: Taiyaun Space Center, China (TSC)

Note: This is SATELLITE DEBRIS
aabbcc
Your satellite tracking list
Your tracking list is empty




NASA's NSSDC Master Catalog

Two Line Element Set (TLE):
1 37708U 99025ELZ 18014.18043394  .00000941  00000-0  20139-3 0  9998
2 37708  98.2654 161.2744 0346867 177.8060 182.4746 14.29683046506870
Source of the keplerian elements: AFSPC